Location: Asheville, NC
(35.6000°N, 82.5500°W)
Time: 07:33:11
(UTC-04:00)

Vanguard 2 Rocket - Pass Details

Date: 10 December 2017
Orbit: 553 x 3328 km, 32.9° (Epoch: 19 June)

Event Time Altitude Azimuth Distance (km) Brightness Sun altitude
Rises 22:41:26 0° 265° (W) 6,093 11.4 -64.6°
Reaches altitude 10° 22:44:56 10° 265° (W) 5,366 11.0 -65.2°
Enters shadow 22:51:46 34° 263° (W) 4,143 10.1 -66.5°
Maximum altitude 23:02:45 82° 181° (S) 3,304 - -68.4°
Drops below altitude 10° 23:22:53 10° 97° (E) 5,947 - -71.8°
Sets 23:27:00 0° 97° (E) 6,747 - -72.4°
